{"data":{"norad_id":65802,"intl_designator":"2025-218M","name":"STARLINK-34919","alt_names":[],"object_type":"PAYLOAD","status":"ACTIVE","operator":null,"country":"US","launch_date":"2025-09-26","launch_site_code":"AFWTR","launch_vehicle":null,"mission":null,"orbit_class":"UNKNOWN","rcs_meters":null,"size_class":null,"mass_kg":null,"dimensions":null,"purposes":["comms"],"wikipedia_slug":null,"has_3d_model":false,"image_url":null,"decayed_at":null,"tle_current":{"epoch":"2026-09-20T21:08:19.930272Z","epoch_age_seconds":73177,"freshness":"FRESH","line1":"1 65802U 25218M   26263.88078623  .00010134  00000+0  31578-3 0  9995","line2":"2 65802  97.2843 121.2746 0001735  90.7355 269.4086 15.33447462 54399","mean_motion":15.33447462,"eccentricity":0.0001735,"inclination_deg":97.2843,"raan_deg":121.2746,"arg_perigee_deg":90.7355,"mean_anomaly_deg":269.4086,"bstar":0.00031578,"rev_number":5439,"period_min":93.906053887355,"perigee_km":464.34847206874,"apogee_km":466.72322654745,"semimajor_km":6843.6728493081,"source":"CELESTRAK","updated_at":"2026-09-21T09:00:35.715605Z"}}}